Temperature
19 20 20 20 20 20 20 20 20 20 20 20 20 20 20 20 19 19 19 19 19 19 19 19 19 19 19 19 19 19 19 19 19 18 18 18 18 18 18 18 18 18 18
20 20 20 20 20 20 20 20 20 20 20 20 20 20 20 19 19 19 19 19 19 19 19 19 19 19 19 19 19 19 19 19 18 18 18 18 18 18 18 18 18 18 18
20 20 20 20 20 20 20 20 20 20 20 20 20 20 20 19 19 19 19 19 19 19 19 19 19 19 19 19 19 19 19 18 18 18 18 18 18 18 18 18 18 18 18
20 20 20 20 20 20 20 20 20 20 20 20 20 20 20 19 19 19 19 19 19 19 19 19 19 19 19 19 19 19 18 18 18 18 18 18 18 18 18 18 18 18 18
20 20 20 20 20 20 20 20 20 20 20 20 20 20 20 20 20 19 19 19 19 19 19 19 19 19 19 19 19 18 18 18 18 18 18 18 18 18 18 18 18 18 18
20 20 20 20 20 20 20 20 20 20 20 20 20 20 20 20 20 19 19 19 19 19 19 19 19 19 19 19 19 18 18 18 18 18 18 18 18 18 18 18 18 18 18
21 20 20 20 20 20 20 20 20 20 20 20 19 19 19 19 19 19 19 19 19 19 19 19 19 19 19 19 19 18 18 18 18 18 18 18 18 18 18 18 18 18 18
21 20 20 20 20 20 20 20 20 20 20 19 19 19 19 19 19 19 19 19 19 19 19 19 19 19 19 19 19 19 18 18 18 18 18 18 18 18 18 18 18 18 18
21 21 20 20 20 20 20 20 20 20 19 19 19 19 19 19 19 19 19 19 19 19 19 19 19 19 19 19 19 19 19 18 18 18 18 18 18 18 18 18 18 18 18
21 21 21 20 20 20 20 20 20 20 19 19 19 19 19 19 19 19 19 19 19 19 19 19 19 19 19 19 19 19 19 19 19 19 18 18 18 18 18 18 18 18 18
21 21 21 20 20 20 20 20 20 19 19 19 19 19 19 19 19 19 19 19 19 19 19 19 19 19 19 19 19 19 19 19 19 19 19 18 18 18 18 18 18 18 18
21 21 21 21 20 20 20 20 19 19 19 19 19 19 19 19 19 19 19 19 19 19 19 19 19 19 19 19 19 19 19 19 19 19 19 19 18 18 18 18 18 18 18
21 21 21 20 20 20 20 20 19 19 19 19 19 19 19 19 19 19 19 19 19 19 19 19 19 19 19 19 19 19 19 19 19 19 19 19 19 18 18 18 18 18 18
21 21 21 20 20 20 20 20 20 19 19 19 19 19 19 19 19 19 19 19 19 19 19 19 19 19 19 19 19 19 19 19 19 19 19 19 19 18 18 18 18 18 18
21 21 20 20 20 20 20 20 19 19 19 19 19 19 19 19 19 19 19 19 19 19 19 19 19 19 19 19 19 19 19 19 19 19 19 19 18 18 18 18 18 18 18
21 21 21 20 20 20 20 20 20 19 19 19 19 19 19 19 19 19 19 19 19 19 19 19 19 19 19 19 19 19 19 19 19 19 19 18 19 19 18 18 18 18 18
21 21 21 20 20 20 20 20 19 19 19 19 19 19 19 19 19 19 19 19 19 19 19 19 19 19 19 19 19 19 19 19 19 19 19 19 19 19 19 18 18 18 18
21 21 21 20 20 20 20 20 20 19 19 19 19 19 19 19 19 19 19 19 19 19 19 19 19 19 19 19 19 19 19 19 19 19 19 19 19 19 19 18 18 18 18
22 21 21 21 20 20 20 20 19 19 19 19 19 19 19 19 19 19 19 19 19 19 18 18 18 19 19 19 19 19 19 19 19 19 19 19 19 19 19 18 18 18 18
22 21 21 21 20 20 20 20 19 19 19 19 19 19 19 19 19 19 19 19 19 18 18 18 18 18 19 19 19 19 19 19 19 19 19 19 19 19 19 18 18 18 18
22 21 21 21 21 20 20 20 20 19 19 19 19 19 19 19 19 19 19 19 19 18 18 18 18 18 18 18 18 19 19 19 19 19 19 19 19 19 18 18 18 18 18
22 22 21 21 21 21 20 20 20 19 19 19 19 19 19 19 19 19 19 19 18 18 18 18 18 18 18 18 18 18 18 19 19 19 19 18 18 18 18 18 18 18 18
22 22 21 21 21 21 20 20 20 19 19 19 19 19 19 19 19 19 19 18 18 18 18 18 18 18 18 18 18 18 18 18 18 18 18 18 18 18 18 18 18 18 18
22 22 22 21 21 21 20 20 20 20 19 19 19 19 19 19 19 19 18 18 18 18 18 18 18 18 18 18 18 18 18 18 17 17 18 18 18 18 18 18 18 18 18
22 22 21 21 21 21 20 20 20 20 19 19 19 19 19 18 18 18 18 18 18 18 18 18 18 18 18 18 18 18 18 17 17 17 17 18 18 18 18 18 18 18 18
22 21 21 21 21 20 20 20 20 20 19 19 19 19 18 18 18 18 18 18 18 18 18 18 18 18 18 18 18 17 17 17 17 17 17 17 18 18 18 18 17 17 17
Wind_Speed
4 6 12 14 14 14 15 15 16 17 17 17 17 18 19 19 19 19 18 18 17 16 15 14 14 13 14 13 13 13 13 13 13 13 13 13 13 13 13 14 13 11 13
7 9 13 14 15 15 15 15 16 16 16 17 17 18 18 18 18 18 18 17 16 15 14 13 13 12 12 12 12 12 12 12 12 12 12 12 11 11 12 12 12 11 12
8 9 13 15 15 15 15 15 16 16 16 17 17 17 17 17 17 17 16 15 15 14 13 12 12 11 11 10 10 10 10 10 11 11 10 9 10 11 11 12 12 12 12
9 10 14 17 16 16 15 15 15 15 16 16 16 16 16 16 16 16 16 15 14 14 13 12 11 10 9 8 8 8 9 9 9 9 7 7 7 10 11 12 12 12 11
9 11 15 17 16 16 15 15 15 15 15 15 15 15 15 15 15 15 15 14 13 13 12 11 10 9 8 7 7 7 7 7 7 6 5 6 7 9 11 11 12 12 11
9 11 15 17 16 16 15 15 14 14 14 14 13 14 13 14 14 14 14 13 12 11 11 10 9 9 8 7 6 5 6 6 5 5 5 7 8 9 11 12 11 11 11
9 10 14 16 16 15 15 15 14 14 14 13 13 12 12 12 12 13 12 12 11 11 10 10 9 8 7 6 5 5 5 5 5 6 7 7 9 11 11 12 12 11 11
10 9 12 15 15 15 15 15 14 13 13 12 12 11 11 10 11 11 11 11 10 10 10 9 9 8 7 6 5 5 5 5 4 5 7 8 9 11 12 13 12 12 11
10 8 8 11 13 14 14 14 14 13 12 12 11 11 10 10 10 10 10 10 10 10 10 9 9 8 7 7 6 5 5 6 4 5 7 8 11 12 12 13 13 12 11
8 7 7 8 9 10 11 13 13 12 12 11 10 10 10 9 9 9 8 9 9 9 10 9 9 9 8 8 7 7 6 6 5 6 7 10 13 12 13 13 13 12 11
8 6 6 6 7 8 9 11 11 11 11 10 9 9 8 6 6 7 8 9 9 9 9 10 9 9 8 8 8 7 6 5 5 6 7 11 13 14 13 13 13 13 12
9 7 6 6 6 7 7 8 8 8 8 7 7 6 5 5 5 6 8 9 10 10 9 9 10 8 6 5 6 7 5 6 5 6 8 12 14 15 15 14 13 13 13
9 8 7 7 6 6 4 6 6 6 6 6 6 6 5 4 3 4 4 6 7 7 6 6 6 5 4 4 3 4 5 5 6 7 9 13 14 16 16 15 14 14 13
9 8 7 6 5 5 5 5 5 5 5 4 6 6 5 2 2 2 3 4 5 5 4 4 4 4 4 5 5 5 6 5 6 7 9 13 15 16 16 15 15 14 13
8 7 7 7 6 5 4 4 4 4 5 5 6 6 6 3 2 2 2 3 4 4 4 3 3 3 3 3 4 5 5 6 7 8 9 13 15 16 16 16 15 14 13
8 7 6 7 6 5 4 3 3 4 5 5 5 6 6 4 2 2 1 1 2 3 3 3 4 3 3 3 3 4 5 5 6 7 9 12 15 16 16 16 15 15 14
9 8 7 7 6 5 4 3 3 4 5 4 4 6 5 4 3 2 1 1 2 2 2 2 2 2 2 2 3 3 4 4 5 6 8 9 11 14 16 16 15 15 15
9 8 7 7 6 5 4 3 2 3 4 4 5 5 5 4 3 2 1 2 2 1 1 1 1 1 2 2 3 3 3 3 4 5 6 7 8 9 12 15 16 15 15
10 9 7 6 6 5 4 2 2 3 3 3 4 4 4 4 4 2 2 2 2 1 1 2 1 2 2 2 3 3 2 2 2 4 4 6 7 8 9 12 14 15 15
9 9 8 6 5 4 3 2 2 1 1 2 3 3 3 3 3 2 1 2 1 1 1 1 2 1 2 2 2 2 2 2 2 3 3 4 5 7 9 9 9 10 13
9 9 8 7 5 4 3 2 2 1 1 1 1 3 3 3 3 2 1 1 1 1 2 2 2 1 1 0 1 2 2 1 1 2 2 2 3 5 7 8 9 9 9
10 9 8 7 6 5 4 3 2 2 1 2 1 1 3 3 3 2 1 1 1 1 1 1 1 0 1 1 1 1 2 3 2 2 1 2 2 2 4 7 8 8 8
11 11 10 8 7 6 5 3 2 1 1 1 0 1 1 2 3 2 2 2 1 1 1 2 1 2 1 1 1 2 1 2 2 3 2 1 1 1 2 3 5 7 9
12 11 9 9 7 6 6 5 4 3 3 2 2 2 2 2 2 2 2 2 1 1 1 1 1 1 2 1 1 1 2 3 1 2 3 2 2 2 3 3 3 5 7
12 11 9 8 7 6 6 7 5 4 3 1 1 1 1 1 2 2 1 1 2 1 1 1 1 1 2 2 2 1 1 1 1 2 3 3 3 3 3 3 3 4 5
10 9 9 8 7 6 7 6 6 5 4 2 1 1 1 1 2 1 1 1 2 1 1 1 2 2 2 2 2 2 2 2 2 2 3 3 3 3 3 3 3 3 4
Wind_Direction
145 151 134 126 120 116 113 111 110 108 108 109 111 114 116 119 121 124 127 128 127 127 126 124 122 123 123 124 125 125 124 124 125 126 125 125 124 123 123 121 120 119 120
152 150 137 130 125 120 116 114 113 112 112 112 113 115 117 120 124 124 127 128 129 129 128 127 126 127 127 127 128 127 127 128 128 128 128 127 126 126 127 126 125 127 127
140 141 137 130 127 123 120 118 116 116 116 116 116 116 118 121 124 128 128 130 131 131 132 132 133 132 131 131 132 133 132 133 134 134 130 126 130 132 133 132 131 132 132
132 131 133 129 127 126 124 122 121 121 120 121 121 121 122 124 127 129 130 131 133 134 135 136 137 137 137 138 140 141 141 141 141 141 137 141 142 143 144 142 139 139 138
124 129 132 128 128 129 128 128 126 124 124 126 125 126 128 129 131 132 134 135 136 137 139 142 145 147 147 148 152 153 155 151 150 150 152 156 156 156 154 152 150 148 147
128 134 135 131 131 131 131 131 130 129 128 129 130 132 134 134 137 137 139 142 143 144 146 151 155 158 160 163 167 168 172 169 162 151 162 164 168 168 163 162 161 157 156
131 137 137 135 134 134 133 132 133 134 134 134 135 136 137 137 139 143 145 147 150 154 156 162 167 171 174 181 184 185 184 180 166 156 169 173 175 174 172 169 166 164 164
134 136 139 138 137 137 136 136 135 136 140 140 139 139 142 143 145 150 155 157 161 165 169 174 180 183 189 199 206 207 203 199 173 165 173 179 180 180 179 175 172 170 170
131 131 133 142 141 141 142 143 143 142 142 144 146 148 150 154 155 160 166 169 173 177 181 188 193 199 209 219 226 228 223 215 198 185 189 190 188 186 185 182 181 179 178
128 131 133 140 143 147 150 150 149 148 148 150 153 158 161 164 168 172 178 184 188 191 194 200 207 213 221 230 239 239 231 221 206 200 196 197 196 192 191 189 187 186 186
133 137 139 143 144 149 153 157 156 157 158 162 166 167 170 179 184 189 196 200 203 208 210 214 219 225 228 236 244 243 239 219 208 207 200 201 201 198 194 193 191 190 191
147 153 150 148 151 154 159 159 163 164 166 171 178 179 184 193 203 204 208 214 218 219 220 225 229 231 232 239 246 245 233 212 209 207 207 206 205 201 196 197 196 196 197
155 156 159 156 158 161 160 157 166 169 171 181 190 192 188 191 209 215 216 225 226 225 225 229 237 232 227 231 232 225 227 219 207 208 206 207 203 201 200 201 202 202 202
151 154 156 155 154 162 158 161 169 172 176 184 197 196 182 177 194 201 208 215 219 221 219 223 229 229 234 232 219 207 215 217 206 199 205 209 205 203 203 204 207 209 207
146 150 154 151 150 149 145 159 162 173 180 184 187 195 185 180 192 202 214 219 230 222 213 212 215 215 221 213 208 202 207 211 204 200 205 211 212 209 208 209 210 211 212
154 153 153 148 146 140 141 146 149 168 173 177 183 189 187 187 188 191 193 225 239 229 217 208 210 210 215 208 220 210 209 211 204 203 207 213 217 215 214 213 212 212 215
156 151 151 149 144 143 143 151 152 165 157 166 180 185 183 190 195 184 190 237 255 253 240 216 223 208 219 222 230 231 216 210 205 206 210 213 218 219 217 215 215 216 218
151 151 154 150 144 146 142 144 144 151 150 167 174 176 185 195 188 173 198 243 250 262 244 219 215 209 225 231 239 247 245 226 217 210 209 209 209 215 219 220 221 221 221
156 152 148 142 148 151 142 136 133 139 145 170 170 171 189 201 198 185 212 245 245 251 245 239 214 203 215 240 248 253 247 240 234 215 210 211 211 209 209 216 223 224 225
156 152 149 147 152 149 133 109 91 100 146 165 169 181 188 199 198 188 207 259 255 242 256 235 217 210 209 227 244 265 268 256 236 219 223 215 212 212 208 207 213 223 228
155 154 156 155 161 153 146 151 155 185 205 191 194 183 187 193 189 160 225 248 248 229 237 223 201 204 246 264 50 330 318 291 256 225 223 213 215 213 204 204 208 215 223
166 165 164 165 166 169 175 175 171 173 199 195 215 188 194 191 195 186 196 224 233 234 262 242 164 173 268 111 130 72 343 332 313 293 236 214 230 222 215 211 209 213 220
172 173 175 176 172 172 167 145 124 89 29 28 324 237 231 202 203 204 205 212 218 190 219 225 196 169 217 271 160 152 156 249 298 308 286 250 250 253 259 228 221 219 219
182 178 174 174 173 174 165 159 157 168 190 217 209 217 241 217 211 213 199 197 214 200 202 222 185 190 175 229 270 222 199 185 196 295 303 282 262 252 254 256 242 225 223
178 176 176 171 174 174 170 173 171 182 201 209 179 201 251 267 236 226 208 203 216 210 185 223 212 199 184 196 214 232 237 231 194 194 270 289 285 262 249 247 244 237 230
173 171 170 168 178 178 177 178 179 182 183 170 182 203 246 265 271 274 232 217 221 210 177 212 225 218 214 208 217 198 185 198 218 201 235 259 271 271 258 249 241 242 236
Height
1518 1518 1518 1518 1519 1519 1519 1520 1520 1521 1522 1522 1523 1524 1525 1527 1528 1530 1532 1533 1535 1536 1538 1539 1540 1541 1542 1544 1545 1545 1546 1547 1548 1549 1550 1550 1551 1551 1552 1552 1552 1553 1553
1517 1517 1518 1519 1519 1520 1520 1521 1522 1522 1523 1524 1525 1526 1527 1528 1529 1531 1533 1534 1536 1537 1539 1540 1541 1542 1543 1545 1546 1547 1547 1548 1549 1550 1551 1551 1552 1552 1553 1553 1553 1554 1554
1516 1516 1517 1519 1520 1521 1522 1522 1523 1524 1525 1526 1527 1528 1529 1530 1531 1532 1534 1535 1537 1538 1540 1541 1542 1543 1544 1545 1547 1547 1548 1549 1550 1551 1551 1552 1553 1553 1553 1554 1554 1554 1555
1517 1516 1517 1520 1521 1522 1523 1524 1525 1526 1526 1528 1528 1529 1531 1532 1533 1534 1535 1536 1538 1539 1540 1542 1543 1544 1545 1546 1547 1548 1549 1550 1550 1551 1552 1553 1553 1553 1554 1554 1555 1555 1555
1519 1519 1520 1522 1523 1524 1525 1526 1526 1527 1528 1529 1530 1531 1532 1533 1534 1535 1537 1538 1539 1540 1541 1543 1544 1545 1546 1547 1548 1549 1550 1550 1551 1552 1552 1553 1553 1554 1554 1555 1555 1555 1556
1522 1523 1523 1524 1525 1526 1527 1527 1528 1529 1530 1531 1532 1533 1534 1535 1536 1537 1538 1539 1540 1541 1542 1544 1545 1546 1547 1548 1549 1549 1550 1551 1551 1552 1553 1553 1554 1554 1554 1555 1555 1556 1556
1523 1525 1526 1526 1527 1527 1528 1529 1529 1530 1531 1532 1533 1534 1535 1536 1537 1538 1539 1540 1541 1542 1543 1544 1545 1546 1547 1548 1549 1550 1551 1551 1551 1552 1553 1553 1554 1554 1554 1555 1555 1556 1556
1525 1526 1527 1528 1528 1529 1530 1530 1531 1532 1533 1534 1535 1536 1537 1537 1538 1539 1540 1541 1542 1543 1544 1545 1546 1547 1547 1548 1549 1550 1551 1551 1551 1552 1552 1553 1553 1554 1554 1555 1555 1555 1556
1527 1528 1528 1529 1530 1530 1531 1532 1533 1533 1534 1535 1536 1537 1538 1538 1539 1540 1541 1542 1543 1543 1544 1545 1546 1547 1547 1548 1549 1550 1551 1551 1551 1552 1552 1552 1553 1553 1553 1554 1555 1555 1555
1528 1529 1530 1530 1531 1531 1532 1533 1534 1534 1535 1536 1537 1538 1539 1539 1540 1541 1542 1542 1543 1544 1544 1545 1546 1546 1547 1548 1549 1550 1550 1551 1551 1551 1552 1552 1552 1552 1553 1553 1554 1554 1554
1529 1530 1531 1531 1532 1532 1533 1534 1534 1535 1536 1537 1538 1539 1539 1540 1541 1541 1542 1542 1543 1543 1543 1544 1545 1546 1547 1548 1548 1549 1549 1550 1550 1551 1551 1551 1551 1552 1552 1552 1553 1553 1553
1529 1530 1531 1532 1532 1533 1533 1534 1535 1535 1536 1537 1538 1539 1540 1540 1541 1541 1542 1542 1542 1542 1542 1543 1544 1545 1546 1547 1547 1548 1548 1549 1549 1549 1550 1550 1550 1550 1550 1551 1552 1552 1553
1529 1531 1532 1532 1533 1533 1534 1535 1535 1536 1537 1538 1538 1539 1540 1540 1541 1541 1541 1541 1541 1541 1542 1542 1543 1544 1544 1545 1546 1546 1547 1547 1547 1548 1548 1548 1549 1549 1550 1550 1551 1551 1551
1530 1531 1532 1533 1533 1534 1534 1535 1535 1536 1537 1537 1538 1539 1540 1540 1540 1540 1541 1541 1541 1541 1541 1541 1542 1542 1543 1544 1545 1545 1545 1545 1546 1546 1547 1547 1548 1548 1549 1549 1549 1550 1550
1531 1532 1532 1533 1534 1534 1535 1535 1535 1536 1537 1538 1538 1539 1539 1540 1540 1540 1540 1540 1539 1539 1540 1541 1541 1541 1542 1542 1543 1543 1544 1544 1544 1545 1545 1546 1546 1547 1547 1548 1548 1548 1548
1531 1532 1533 1534 1535 1535 1535 1536 1536 1537 1537 1538 1539 1539 1539 1539 1539 1539 1540 1539 1539 1539 1539 1540 1540 1540 1540 1541 1541 1542 1542 1543 1543 1544 1544 1544 1545 1545 1546 1546 1547 1546 1547
1530 1532 1533 1534 1535 1536 1536 1536 1537 1537 1538 1538 1539 1539 1539 1539 1539 1539 1539 1539 1539 1538 1538 1538 1539 1539 1539 1539 1540 1540 1541 1541 1541 1541 1542 1542 1543 1543 1544 1545 1545 1545 1545
1530 1531 1533 1534 1535 1536 1536 1537 1537 1538 1538 1538 1539 1539 1539 1539 1539 1539 1538 1538 1538 1537 1537 1537 1537 1537 1538 1538 1538 1539 1539 1540 1540 1540 1540 1540 1541 1541 1542 1542 1543 1543 1543
1529 1531 1532 1534 1535 1536 1537 1537 1538 1538 1538 1538 1539 1538 1538 1538 1538 1537 1537 1537 1537 1536 1536 1536 1536 1536 1536 1536 1537 1537 1538 1538 1538 1538 1538 1538 1539 1539 1540 1540 1540 1540 1540
1529 1531 1532 1533 1534 1536 1537 1537 1538 1538 1538 1538 1538 1538 1538 1537 1537 1537 1536 1536 1535 1535 1534 1534 1534 1535 1535 1535 1535 1536 1536 1536 1536 1536 1537 1537 1537 1537 1537 1538 1537 1538 1538
1528 1529 1531 1532 1533 1535 1536 1536 1537 1537 1537 1537 1537 1537 1537 1536 1536 1536 1535 1534 1534 1533 1533 1532 1532 1533 1533 1533 1534 1534 1534 1535 1535 1535 1535 1535 1535 1535 1535 1535 1535 1535 1535
1526 1528 1529 1531 1532 1533 1534 1535 1536 1537 1537 1537 1537 1536 1536 1536 1535 1535 1534 1533 1533 1532 1531 1531 1531 1531 1532 1532 1533 1532 1532 1534 1533 1533 1533 1533 1533 1533 1532 1532 1532 1532 1532
1524 1526 1528 1529 1530 1532 1533 1534 1535 1536 1536 1536 1536 1536 1536 1535 1535 1534 1533 1533 1532 1531 1530 1529 1529 1530 1530 1531 1532 1532 1532 1531 1531 1531 1531 1531 1530 1530 1530 1529 1529 1529 1529
1522 1524 1526 1527 1529 1530 1531 1533 1533 1534 1534 1534 1535 1535 1535 1534 1534 1533 1533 1532 1531 1530 1529 1529 1529 1529 1529 1529 1530 1530 1531 1531 1530 1529 1528 1528 1528 1528 1528 1527 1527 1526 1526
1520 1522 1524 1526 1527 1529 1530 1531 1532 1532 1533 1533 1534 1534 1534 1533 1533 1532 1531 1531 1530 1529 1529 1529 1528 1528 1528 1528 1528 1528 1528 1528 1528 1527 1526 1526 1525 1525 1525 1525 1524 1524 1523
1518 1520 1522 1523 1525 1527 1528 1529 1530 1530 1531 1532 1532 1532 1532 1532 1531 1531 1530 1529 1529 1528 1527 1527 1527 1527 1526 1526 1526 1526 1526 1525 1525 1525 1524 1523 1522 1522 1522 1522 1521 1521 1521